Voltar ao catálogo

STARLINK-34659

AtivoComunicaçõesVLEO
NORAD 64913·PAYLOAD·🇺🇸 United States

Lançado Jul 26, 2025 de Cape Canaveral Space Force Station

Loading…

Próximas Passagens (próximas 24 horas)

TLE

AtualizadoSource: CelesTrak SupGP

Época: Sep 14, 2026, 20:44 UTC

1 64913C 25157K   26257.86437500  .00005704  00000+0  18336-3 0  2574
2 64913  53.1575 185.4102 0001325  91.2460 112.9940 15.31709626    12

Acompanhe STARLINK-34659 em tempo real com AllMySat

Download on the App Store